ECHOSTAR 18

Last updated on Tue Sep 22 2026 00:03:14 GMT+0000 (Coordinated Universal Time)

1 41592U 16039B 26264.47693729 .00000000 00000+0 00000+0 0 9995 2 41592 0.0252 160.7705 0001692 13.0933 296.8412 1.00268561 37590
UTC large
Height (km)
Speed (km/s)
/
Latitude / Longitude
Inclination (degrees)
Orbital Period (minutes)
Azimuth
Elevation
Range (km)
Doppler Factor

Next 0 passes for location: London (51.5072 / 0.1276)

No passes found over London.
ECHOSTAR 18